Location: Haliburton Scout Reserve
(45.0900°N, 78.3200°W)
Time: 18:39:56
(UTC-04:00)

STRAND 1 - Pass Details

Date: 30 March 2023
Orbit: 767 x 779 km, 98.4° (Epoch: 06 June)

Event Time Altitude Azimuth Distance (km) Brightness Sun altitude
Rises 05:20:31 0° 109° (ESE) 3,249 ? -17.4°
Reaches altitude 10° 05:24:08 10° 82° (E) 2,324 ? -16.8°
Maximum altitude 05:26:20 13° 56° (ENE) 2,129 ? -16.5°
Drops below altitude 10° 05:28:33 10° 31° (NNE) 2,327 ? -16.1°
Sets 05:32:09 0° 4° (N) 3,257 ? -15.5°
